Lid_Strength_Index
2 0 0 0 0 0 0 0 1 1 1 2 3 4 4 4 5 7 10 10 9 13 14 14 14 14 15 14 15 15 15 16 17 20 20 21 23 21 22 19 20 20 22 22 20 20 21 11 12 14 12 12 12 12
4 2 0 0 0 0 0 0 1 1 1 2 2 2 3 4 5 6 10 10 9 12 14 13 13 13 14 13 13 13 14 15 14 16 19 19 23 22 23 23 17 22 16 18 16 15 12 11 12 10 10 11 12 12
5 4 3 1 0 0 0 0 1 1 1 1 2 2 3 4 4 6 10 11 11 14 14 14 15 13 12 13 11 14 13 12 13 13 16 17 22 17 24 22 19 16 15 18 19 16 13 12 11 10 10 11 12 12
6 5 4 3 0 0 1 0 1 1 1 2 2 2 3 4 5 6 10 10 10 13 15 16 13 14 13 13 12 11 12 11 12 13 16 18 21 16 18 18 19 17 16 19 18 15 15 14 12 11 11 11 12 12
6 6 5 4 1 0 0 0 1 1 1 1 2 3 3 3 4 6 10 10 9 12 16 17 15 15 14 13 13 12 11 12 14 17 18 19 17 18 17 18 19 16 17 18 18 14 14 13 13 11 12 12 12 13
6 6 6 5 2 1 0 1 1 1 2 2 2 3 3 3 4 9 14 9 10 11 15 18 16 15 15 13 13 14 13 13 14 16 17 18 17 18 23 23 16 15 14 14 16 16 15 15 15 14 12 12 14 15
6 6 6 6 4 1 1 1 1 1 1 2 2 3 3 3 7 11 13 10 8 10 15 19 19 16 15 14 14 14 14 17 15 18 19 18 18 18 22 22 16 15 14 14 15 15 16 17 15 17 16 17 19 21
6 6 6 6 4 1 1 1 1 1 1 2 2 3 3 5 6 11 10 6 7 13 14 18 20 18 15 16 17 15 16 17 17 15 17 18 17 19 20 17 16 16 16 17 15 15 16 18 19 20 23 23 23 22
6 6 6 6 5 1 1 1 1 1 1 2 2 2 4 11 13 13 7 7 10 12 16 19 22 21 16 16 17 17 18 21 17 18 18 19 21 22 19 17 18 17 17 17 17 20 22 21 20 22 24 25 22 24
6 6 6 6 6 4 1 1 1 1 2 2 3 11 13 13 8 9 12 13 13 13 15 18 18 20 17 17 17 18 19 22 27 21 17 20 21 16 15 16 16 16 16 18 21 22 24 23 20 21 21 21 20 22
6 6 6 6 6 5 2 1 1 1 1 10 12 14 12 7 11 13 15 15 14 16 15 18 19 19 17 20 20 18 22 25 27 23 24 26 23 19 15 14 13 16 15 16 19 17 15 19 18 19 23 22 25 25
6 6 6 6 6 5 3 2 1 3 10 9 11 11 12 12 13 15 16 15 16 18 18 19 20 19 20 18 20 23 24 26 28 24 25 28 20 16 19 19 19 16 16 17 21 18 18 18 17 17 19 22 24 27
7 6 6 6 6 5 4 2 3 6 7 9 11 13 13 13 17 17 19 19 19 18 19 18 21 20 21 19 21 22 26 27 26 25 27 24 19 18 19 25 23 22 18 20 25 26 24 27 29 24 25 29 26 28
7 6 6 6 6 5 4 4 4 6 10 12 14 17 16 18 16 17 16 17 20 19 17 17 22 20 21 21 21 23 27 27 31 30 26 22 18 16 19 26 24 22 21 21 22 23 24 25 29 31 29 28 27 27
7 6 6 6 6 4 3 4 4 6 11 13 13 17 16 16 19 17 18 18 19 15 16 19 20 19 21 22 21 25 29 30 27 25 22 19 20 19 21 25 24 23 23 21 23 23 25 27 27 30 32 31 32 32
6 6 7 6 5 4 4 4 6 10 11 12 12 15 16 18 20 18 17 18 15 14 14 16 19 19 20 20 26 24 26 27 24 22 20 22 21 20 22 26 25 22 22 23 23 25 26 26 26 27 32 33 33 32
6 9 6 6 5 5 4 8 9 11 12 13 14 16 15 16 18 17 16 16 13 14 16 18 20 20 21 22 24 22 24 21 19 21 22 23 25 25 27 27 25 24 22 23 25 26 27 28 28 30 30 33 33 31
9 8 5 6 6 5 9 10 10 12 15 15 17 16 16 16 15 16 16 13 14 14 15 16 18 21 22 22 22 21 21 20 20 21 26 29 29 27 25 25 26 25 24 24 24 27 27 27 27 28 29 30 30 30
8 7 6 5 5 10 10 11 12 17 17 16 15 16 16 15 14 13 13 12 14 14 15 16 17 21 21 23 24 24 23 26 26 25 27 30 30 29 26 25 26 27 26 26 25 24 26 28 27 26 27 27 28 28
5 5 5 5 6 10 12 13 11 14 16 16 14 16 15 16 14 13 13 15 15 14 16 20 27 31 30 31 30 30 28 28 27 25 26 28 28 28 28 25 25 26 25 26 27 27 27 30 30 28 27 26 25 26
5 5 4 8 13 14 15 14 15 14 15 15 14 15 15 14 15 14 16 16 19 27 27 30 32 33 31 32 32 31 29 30 31 31 31 28 28 28 28 27 25 26 28 25 26 29 28 28 28 27 26 28 27 25
7 6 11 10 14 15 17 17 15 15 15 15 15 14 16 16 16 18 19 23 30 34 33 33 34 34 33 33 31 31 30 30 28 29 28 29 29 28 28 29 25 27 26 27 25 25 26 25 25 25 25 27 26 26
14 16 19 18 16 17 19 17 16 16 17 17 16 18 19 21 22 22 31 33 34 33 33 34 34 33 31 30 30 30 30 29 29 30 29 28 27 26 26 26 26 25 25 26 26 23 24 26 24 23 24 25 26 27
22 29 27 27 23 23 20 23 20 20 21 22 22 23 23 22 23 27 35 36 35 33 33 33 32 30 29 29 30 31 31 29 28 29 30 28 29 29 29 29 29 28 27 27 26 25 25 26 26 25 24 24 24 24
26 35 31 31 30 27 27 27 27 26 27 24 24 26 26 24 27 31 36 36 35 35 35 34 32 31 30 30 30 30 30 31 30 31 31 30 29 29 29 30 30 29 28 27 26 26 27 27 25 25 24 24 23 23
37 36 35 37 35 33 34 32 33 31 29 30 30 29 27 24 25 35 40 38 37 37 37 37 36 33 33 33 32 32 32 30 29 31 31 30 31 29 28 28 29 30 28 27 28 27 27 26 26 26 25 25 24 25
41 41 36 33 35 34 35 34 34 36 37 34 36 32 27 26 35 40 37 36 37 36 35 35 35 35 34 33 33 32 30 30 30 30 30 31 31 30 30 30 31 30 28 28 28 27 28 27 27 27 26 25 25 25
39 38 41 37 38 37 38 38 40 42 41 40 38 41 37 40 42 39 37 36 35 34 34 34 33 33 33 33 33 33 32 30 29 28 29 31 31 31 31 30 29 26 28 28 27 27 27 26 27 26 26 26 25 25
38 38 36 38 37 39 41 40 41 40 39 39 39 41 42 40 39 38 37 36 34 35 36 35 34 32 32 32 32 33 33 33 31 30 30 31 31 32 32 31 31 30 29 29 26 25 24 25 24 24 25 24 24 23
39 37 36 38 40 41 40 39 39 37 36 37 37 37 38 38 37 35 36 36 37 37 36 35 35 34 35 34 34 34 33 33 34 34 33 34 34 32 31 31 30 29 28 28 28 27 25 25 24 24 24 23 23 23
36 35 36 37 38 38 38 37 36 35 35 36 36 38 39 38 36 35 36 36 35 36 36 36 36 36 36 36 36 35 34 33 33 33 33 32 31 31 30 30 29 28 28 28 28 27 27 26 26 25 25 25 24 24
35 37 35 37 38 36 36 37 35 36 36 37 38 36 36 36 38 37 36 36 36 37 36 37 37 37 36 35 34 33 32 33 33 33 32 31 30 29 28 28 27 28 29 28 28 28 27 27 26 26 26 26 26 26
36 36 36 36 36 37 38 38 35 36 36 38 39 38 38 37 39 36 34 34 36 36 37 37 36 35 35 34 34 33 33 33 31 29 28 26 27 26 27 28 29 29 29 29 29 28 28 29 29 28 28 28 28 29